Regional Weather Roundup
Issued by NWS Green Bay, WI

Home | Current Version | Previous Version | Graphics & Text | Print | Product List | Glossary Off
Versions: 1 2 3 4 5 6 7 8 9 10 11 12 13 14 15 16 17 18 19 20 21 22 23 24 25 26 27 28 29 30 31 32 33 34 35 36 37 38 39 40 41 42 43 44 45 46 47 48 49 50

000
ASUS43 KGRB 231959
RWRGRB

NORTH-CENTRAL AND NORTHEAST WISCONSIN REGIONAL WEATHER ROUNDUP
NATIONAL WEATHER SERVICE GREEN BAY WI
300 PM CDT TUE SEP 23 2014

WIZ005-009-010>012-018-019-232100-
NORTH CENTRAL WISCONSIN

CITY           SKY/WX    TMP DP  RH WIND       PRES   REMARKS
IRONWOOD       SUNNY     73  48  40 S8G16     30.18F
MANITOWISH WTR NOT AVBL
ARBOR VITAE    NOT AVBL
EAGLE RIVER    NOT AVBL
LAND O LAKES   NOT AVBL
RHINELANDER    SUNNY     72  48  42 S8        30.26F
PHILLIPS       NOT AVBL
ANTIGO         NOT AVBL
TOMAHAWK       NOT AVBL
MERRILL        NOT AVBL
$$

WIZ013-073-232100-
NORTHEAST WISCONSIN

CITY           SKY/WX    TMP DP  RH WIND       PRES   REMARKS
IRON MOUNTAIN  SUNNY     76  51  41 SW5       30.23F
MARINETTE      SUNNY     72  55  56 S10G17    30.25S
$$

WIZ017-030-035>037-045-232100-
CENTRAL WISCONSIN

CITY           SKY/WX    TMP DP  RH WIND       PRES   REMARKS
MEDFORD        NOT AVBL
WAUSAU         SUNNY     72  49  44 S10       30.25F
MOSINEE        SUNNY     72  52  49 S10       30.27F
MARSHFIELD     SUNNY     73  50  44 S9        30.25F
WISC RAPIDS    SUNNY     73  50  44 S10       30.27F
STEVENS POINT  NOT AVBL
WAUPACA        NOT AVBL
SHAWANO        SUNNY     75  50  40 CALM      30.26F
CLINTONVILLE   SUNNY     73  48  40 W7        30.26F
$$

WIZ038-039-048-051-232100-
FOX VALLEY

CITY           SKY/WX    TMP DP  RH WIND       PRES   REMARKS
NWS GREEN BAY  SUNNY     74  54  49 SW9       30.27F
APPLETON       SUNNY     72  50  46 SW7       30.28F
OSHKOSH        SUNNY     73  52  47 SW7       30.26F
FOND DU LAC    SUNNY     73  51  46 W6        30.27F
$$

WIZ022-050-052-232100-
EAST CENTRAL WISCONSIN

CITY           SKY/WX    TMP DP  RH WIND       PRES   REMARKS
STURGEON BAY   SUNNY     72  54  53 W10       30.28S
MANITOWOC      NOT AVBL
SHEBOYGAN      SUNNY     75  50  41 SW8       30.28F
$$

LMZ563-521-522-541>543-232100-
LAKESHORE

STATION/POSITION TIME  TEMP    WIND        PRES    VSBY  WAVE
                       AIR SEA DIR/SP/G                  HT/PER
                 (UTC) (F)     (DEG/KT/KT) (MB)    (MI)  (FT/S)
SHEBOYGAN LKSHOR 1900   57 54  160/ 11/ 12 1026.2F
KEWAUNEE LKSHORE 1900   58     180/  8/ 10 1024.5F
NORTHPORT PIER   1900   67     150/  6/  9 1024.4F
N MID LAKE BUOY  1900   58 58  200/ 10/ 12 1025.1F         1/ 4
S GREEN BAY BUOY 1900   64     VRB  6/  6  1025.8F
CHAMBERS ISLAND  1900   69     190/  4/  8 1024.7S
MENOMINEE LKSHOR 1900   67     170/ 10/ 13 1025.1R
$$



USA.gov is the U.S. government's official web portal to all federal, state and local government web resources and services.